Фройденштадт

Германия     48°28′03″N   8°24′59″E
темп.,
°C
ветер,
м/с
пор.,
м/с
влажн.,
%
обл.,
%
осадки,
мм/ч
давл.,
гПа
погр.,
м
15 мая, сб
сб1523:00+5зюз269697 0.3 1012150
02:00+4юз28972 0.3 1012231
05:00+3юз279877 0.0 1011219
08:00+7юз3890100 0.0 1011544
11:00+10зюз5872100 0.4 10091175
14:00+11юз5106698 0.8 10071591
17:00+7юз5129473 1.6 1008952
20:00+7юз499099 1.7 1008880
16 мая, вс
вс1623:00+6зюз4109798 5.9 1009876
02:00+6юз4119696 6.3 1009735
05:00+7зюз4119799 1.3 1008877
08:00+7юз289680 1.4 1008573
11:00+9юз5792100 1.9 1007924
14:00+7юз499497 3.0 1007594
17:00+10зюз5127614 0.2 10051219
20:00+9зюз5128975 0.8 1006994
17 мая, пн
пн1723:00+7зюз5129498 0.3 1008881
02:00+7зюз6139470 1.4 10081119
05:00+6зюз6149492 0.1 10081111
08:00+6юз61393100 0.3 10101428
11:00+6зюз71495100 1.3 10111204
14:00+7зюз6129191 1.5 10121205
17:00+7зюз61294100 0.8 10121215
20:00+7зюз6129355 1.8 10121028
18 мая, вт
вт1823:00+6зюз51395100 0.3 1012794
02:00+7зюз71295100 0.5 1013980
05:00+6зюз71497100 4.3 10131347
08:00+5зюз61298100 9.0 10151126
11:00+5зюз61398100 1.9 10171231
14:00+5зюз61298100 3.9 10181169
17:00+5зюз5119797 0.8 1019743
20:00+6зюз4109486 0.9 1020847
19 мая, ср
ср1923:00+6зюз41094100 0.1 1021684
02:00+5зюз31194100 0.1 1021482
05:00+5зюз31094100 0.1 1021688
08:00+5юз3894100 0.1 1022489
11:00+6юз4493100 1.0 1022609
14:00+5зюз3797100 2.3 1023680
17:00+7зюз3992100 0.7 10221124
20:00+7зюз499536 1.0 1022765